Flag for Canada Weather past 2 weeks in New Westminster, British Columbia, Canada

Now
57 °F

Cool.


Feels Like: 57 °F
Forecast: 54 / 79 °F
Wind: 1 mph from Northwest

Location: P. Meadows Coastal Station

Current Time: Sep 20, 2014 at 11:54:57 PM

Latest Report: Sep 20, 2014 at 11:00 PM


Visibility: N/A

Pressure: 29.91 "Hg

Humidity: 95%

Dew point: 56 °F

Location of New WestminsterLocation

Historic Weather in New Westminster — Graph

°F

New Westminster temperature yesterday

Maximum temperature yesterday: 65 °F (at 6:00 PM)
Minimum temperature yesterday: 58 °F (at 1:00 AM)
Average temperature yesterday: 61 °F

Past Weeks' High & Low Weather Summary

 TemperatureHumidityPressure
High87 °F (Sep 15, 4:00 PM)100% (Sep 15, 7:00 AM)30.34 "Hg (Sep 15, 7:00 AM)
Low43 °F (Sep 12, 7:00 AM)17% (Sep 10, 5:00 PM)29.70 "Hg (Sep 17, 7:00 PM)
Average63 °F70%29.97 "Hg
* Reported Sep 5 10:00 PM — Sep 20 10:00 PM, New Westminster, Weather by CustomWeather, © 2014

Note: Actual official high and low records may vary slightly from our data, if they occured in-between our weather recording intervals... More about our weather records

Advertising

New Westminster weather history for previous 24 hours

 ConditionsComfort  
Time TempWeatherWind HumidityBarometerVisibility
10:00 PM
Sep 20
60 °FCool.1 mph92%29.92 "HgN/A
9:00 PM63 °FMild.1 mph85%29.92 "HgN/A
8:00 PM66 °FMild.2 mph77%29.93 "HgN/A
7:00 PM69 °FMild.2 mph65%29.93 "HgN/A
6:00 PM73 °FMild.5 mph58%29.95 "HgN/A
5:00 PM74 °FMild.6 mph54%29.98 "HgN/A
4:00 PM74 °FMild.3 mph57%30.00 "HgN/A
3:00 PM72 °FMild.2 mph52%30.02 "HgN/A
2:00 PM71 °FMild.2 mph61%30.06 "HgN/A
1:00 PM69 °FMild.2 mph66%30.09 "HgN/A
12:00 PM66 °FMild.3 mph68%30.11 "HgN/A
11:00 AM62 °FCool.2 mph87%30.14 "HgN/A
10:00 AM58 °FCool.1 mph99%30.14 "HgN/A
6:00 AM52 °FCool.No wind99%30.15 "HgN/A
5:00 AM52 °FCool.No wind99%30.15 "HgN/A
4:00 AM53 °FCool.2 mph99%30.14 "HgN/A
3:00 AM54 °FCool.1 mph99%30.15 "HgN/A
2:00 AM54 °FCool.No wind99%30.15 "HgN/A
1:00 AM53 °FCool.No wind99%30.15 "HgN/A
12:00 AM55 °FCool.2 mph92%30.15 "HgN/A
11:00 PM
Sep 19
59 °FCool.2 mph98%30.14 "HgN/A
Weather by CustomWeather, © 2014

See weather overviewHow to use our weather pages